METAR LSZS 161050Z 00000KT CAVOK M09/M10 Q1016 R03/910195 RMK I=
Diese Daten sind ohne Gewähr und dürfen nicht für die Flugvorbereitung verwendet werden.
Information contained in this website shall not be used for flight operation purposes.